Terug naar catalogus

BREEZE-M R/B

LostHEO
NORAD 40985·ROCKET BODY·🇷🇺 Russia

Gelanceerd Oct 16, 2015 vanaf Baikonur Cosmodrome

Loading…

Volgende Passages (komende 24 uur)

TLE

VerouderdSource: Space-Track

Epoch: Aug 5, 2026, 15:44 UTC

1 40985U 15060B   26217.65587084 -.00000072  00000-0  00000-0 0  9999
2 40985  13.5059 299.4224 4772319  61.7370 338.0461  1.91626399 75621

Volg BREEZE-M R/B in realtime met AllMySat

Download on the App Store